Weather observations for the past three days for
Camp Springs / Andrews Air Force Base
Metric (Imperial)
Date Time (edt) Wind (kph) Vis. (km) Weather Sky Cond. Temperature (ºC) Relative Humidity Wind Chill (°C) Heat Index (°C) Pressure Precipitation (cm)
Air Dwpt 6 hour altimeter (cm) sea level (mb) 1 hr 3 hr 6 hr
Max. Min.
06 05:55 S 20 16.09 Partly Cloudy SCT200 18.2 12.4 69% 75.74 1010.3
06 04:55 SW 28 G 46 16.09 Partly Cloudy SCT150 18.5 12.2 67% 75.77 1010.6
06 03:55 S 19 16.09 Partly Cloudy SCT150 19.3 12.3 64% 75.74 1010.3
06 02:55 S 28 G 37 16.09 Mostly Cloudy SCT130 BKN150 20.2 11.9 59% 75.79 1010.9
06 01:55 S 28 G 46 16.09 Partly Cloudy SCT200 21.2 11.2 25.8 21.2 53% 75.79 1010.9
06 00:55 S 28 G 39 16.09 Mostly Cloudy SCT180 BKN210 21.9 10.1 47% 75.82 1011.3
05 23:55 S 22 16.09 Partly Cloudy SCT200 22.4 9.5 44% 75.84 1011.6
05 22:55 S 31 G 37 16.09 A Few Clouds FEW210 23 8.7 40% 75.82 1011.3
05 21:55 S 24 16.09 A Few Clouds FEW230 23.5 7.6 36% 75.82 1011.3
05 20:55 S 24 16.09 Fair CLR 24.3 5.1 29% 25 75.77 1010.6
05 19:55 S 30 G 39 16.09 Fair CLR 25.7 4.7 31.5 25.7 26% 26 75.72 1009.9
05 17:55 SW 20 G 37 16.09 Fair CLR 27.5 2.5 20% 26 75.69 1009.6
05 16:55 S 30 G 37 16.09 Fair CLR 29 3 19% 27 75.69 1009.6
05 15:55 S 26 G 41 16.09 Fair CLR 29.1 3.8 20% 28 75.69 1009.6
05 14:55 S 33 G 46 16.09 Fair and Breezy CLR 30.1 6 22% 28 75.77 1010.6
05 13:55 SW 37 G 46 16.09 Fair and Breezy CLR 28.9 5.7 29.2 18.5 23% 27 75.82 1011.3
05 12:55 SW 22 G 41 16.09 Fair CLR 28.3 5.8 24% 27 75.87 1012.0
05 11:55 SW 24 16.09 Fair CLR 26.4 7.9 31% 26 75.92 1012.7
05 10:55 S 22 16.09 Fair CLR 25 8.9 36% 26 75.95 1013.0
05 09:55 SW 20 G 31 16.09 Fair CLR 22.5 8.2 40% 75.95 1013.0
05 08:55 SW 19 G 35 16.09 Fair CLR 20.4 7.7 44% 75.97 1013.4
05 07:55 SW 24 16.09 A Few Clouds FEW100 18.4 7.5 18.4 14.6 49% 75.95 1013.0
05 06:55 S 19 16.09 Partly Cloudy SCT200 16.9 6.7 51% 75.92 1012.7
05 05:55 SW 19 G 33 16.09 A Few Clouds FEW200 16.7 6.2 50% 75.87 1012.0
05 04:55 SW 19 16.09 Fair CLR 17 6.2 49% 75.87 1012.0
05 03:55 S 19 16.09 Fair CLR 16.3 6.4 52% 75.84 1011.7
05 02:55 S 13 16.09 A Few Clouds FEW250 15.9 6.3 53% 75.84 1011.7
05 01:55 S 13 16.09 Partly Cloudy SCT250 15.9 6.1 21.4 15.7 52% 75.84 1011.7
05 00:55 S 9 16.09 Partly Cloudy FEW130 SCT250 17.4 5.7 46% 75.87 1012.0
04 23:55 S 17 16.09 A Few Clouds FEW120 FEW250 17.7 5.6 45% 75.84 1011.7
04 22:55 S 13 16.09 Mostly Cloudy BKN130 19.4 5.4 40% 75.84 1011.7
04 21:55 S 19 16.09 A Few Clouds FEW100 17.6 5.5 45% 75.82 1011.4
04 20:55 S 11 16.09 A Few Clouds FEW100 19.2 5.3 40% 75.77 1010.7
04 19:55 S 22 G 33 16.09 A Few Clouds FEW100 21.5 4.1 26.4 21.5 32% 75.77 1010.7
04 18:55 S 28 G 37 16.09 A Few Clouds FEW100 24.1 3.9 27% 25 75.74 1010.4
04 17:55 SW 30 G 44 16.09 A Few Clouds FEW100 26.1 3.9 24% 26 75.74 1010.4
04 16:55 SW 24 G 33 16.09 A Few Clouds FEW100 25.4 2.1 22% 25 75.74 1010.4
04 15:55 SW 28 G 37 16.09 Fair CLR 25.2 2 22% 25 75.79 1011.0
04 14:55 SW 24 G 31 16.09 Fair CLR 24.6 1.5 22% 25 75.87 1012.1
04 13:55 SW 19 G 33 16.09 Fair CLR 23.3 1.6 23.7 12.6 24% 75.95 1013.1
04 12:55 W 17 16.09 Fair CLR 22.8 0.6 23% 76 1013.8
04 11:55 W 15 G 31 16.09 Fair CLR 21.8 0.9 25% 76.05 1014.5
04 10:55 SW 11 16.09 Fair CLR 20.6 0.4 26% 76.05 1014.5
04 09:55 SW 9 16.09 Fair CLR 17.4 1 33% 76.1 1015.2
04 08:55 SW 17 16.09 Fair CLR 14.7 1.6 41% 76.12 1015.6
04 07:55 SW 19 16.09 Mostly Cloudy BKN095 12.9 1.9 13 8.6 47% 76.15 1015.9
04 06:55 S 9 16.09 Fair CLR 8.8 2.1 63% 8 76.15 1015.9
04 05:55 S 15 16.09 Overcast OVC095 10.7 1.8 54% 76.15 1015.9
04 04:55 SW 9 16.09 Overcast OVC100 10.7 2.5 57% 76.17 1016.2
04 03:55 S 13 16.09 Overcast OVC100 10.7 2.5 57% 76.17 1016.2
04 02:55 S 9 16.09 Overcast OVC120 10.3 2.4 58% 76.2 1016.6
04 01:55 S 7 16.09 A Few Clouds FEW130 9.7 1.6 15 6.6 57% 9 76.2 1016.6
03 23:55 S 9 16.09 Fair CLR 9.3 -0.9 49% 8 76.2 1016.6
03 22:55 S 13 16.09 Fair CLR 9 -1.4 48% 7 76.17 1016.3
03 21:55 S 9 16.09 Fair CLR 7.9 -0.8 55% 7 76.15 1016.0
03 20:55 S 9 16.09 Fair CLR 10.5 -1.6 43% 76.12 1015.6
03 19:55 W 11 16.09 Fair CLR 15.2 -5.8 17.4 14.5 23% 76.1 1015.2
03 18:55 NW 13 16.09 Fair CLR 16.8 -7 19% 76.07 1014.9
03 17:55 W 19 16.09 Fair CLR 17.3 -6.6 19% 76.07 1014.9
03 16:55 W 24 G 33 16.09 Fair CLR 16.9 -6.2 20% 76.07 1014.9
03 15:55 NW 26 G 33 16.09 Fair CLR 16.6 -5.2 22% 76.12 1015.6
03 14:55 W 17 16.09 Fair CLR 16 -5.1 23% 76.17 1016.3
03 13:55 N 20 G 39 16.09 Fair CLR 15.5 -5.6 15.5 8.1 23% 76.23 1016.9
03 12:55 NW 19 G 33 16.09 Fair CLR 14.6 -6.3 23% 76.25 1017.3
03 11:55 NW 24 G 33 16.09 Fair CLR 13.1 -5.5 27% 76.28 1017.6
03 10:55 NW 30 G 39 16.09 A Few Clouds FEW065 11.6 -6.8 27% 76.3 1018.0
03 09:55 NW 24 G 33 16.09 Fair CLR 10.8 -5.2 32% 76.3 1018.0
03 08:55 NW 26 G 39 16.09 Fair CLR 9.6 -4 38% 7 76.3 1018.0
03 07:55 NW 28 G 41 16.09 Fair CLR 8.3 -2.4 10.3 6.3 47% 5 76.28 1017.6
03 06:55 NW 20 16.09 Fair CLR 7.2 -2.3 51% 4 76.2 1016.6
Date Time (edt) Wind (kph) Vis. (km) Weather Sky Cond. Air Dwpt Max. Min. Relative Humidity Wind Chill (°C) Heat Index (°C) altimeter (cm) sea level (mb) 1 hr 3 hr 6 hr
6 hour
Temperature (ºC) Pressure Precipitation (cm)